This demonstration page uses our WeatherBlox Daily Observations layout. Learn more.

Left ArrowRight Arrow

Hourly Observations for January 12, 2020

Temp ( °F °C ) Dew Point ( °F °C ) Humidity (%) Winds ( mph kmh ) Pressure ( in mb ) Visibility ( mi km ) Precip ( " mm )
12:53 am 00:53 Clear 17 -8.3 8 -13.3 68 68 SSE 6 9 30.08 1019 10 16 0.00 0.00
1:53 am 01:53 Clear 17 -8.3 9 -12.8 70 70 S 7 11 30.08 1019 10 16 0.00 0.00
2:53 am 02:53 Clear 18 -7.8 9 -12.8 68 68 SSE 10 17 30.06 1018 10 16 0.00 0.00
3:53 am 03:53 Clear 18 -7.8 10 -12.2 71 71 SSE 9 15 30.04 1017 10 16 0.00 0.00
4:53 am 04:53 Clear 19 -7.2 12 -11.1 74 74 SSE 7 11 30.05 1018 10 16 0.00 0.00
5:53 am 05:53 Cloudy 19 -7.2 13 -10.6 77 77 SSE 9 15 30.06 1018 10 16 0.00 0.00
6:53 am 06:53 Mostly Clear 19 -7.2 14 -10 81 81 SSE 6 9 30.08 1019 10 16 0.00 0.00
7:53 am 07:53 Cloudy 19 -7.2 16 -8.9 88 88 SE 8 13 30.08 1019 10 16 0.00 0.00
8:53 am 08:53 Cloudy 20 -6.7 17 -8.3 89 89 ESE 8 13 30.08 1019 10 16 0.00 0.00
9:53 am 09:53 Cloudy 21 -6.1 17 -8.3 85 85 SE 9 15 30.06 1018 10 16 0.00 0.00
10:29 am 10:29 Cloudy 21 -6.1 18 -7.8 88 88 SE 9 15 30.12 1020 10 16 0.00 0.00
10:51 am 10:51 Cloudy 21 -6 18 -8 86 86 SSE 10 17 30.11 1020 10 16 0.00 0.00
10:53 am 10:53 Cloudy 21 -6.1 18 -7.8 88 88 SSE 9 15 30.07 1018 10 16 0.00 0.00
10:58 am 10:58 Cloudy 21 -6.1 18 -7.8 88 88 SSE 8 13 30.13 1020 9 14 0.00 0.00
11:35 am 11:35 Cloudy with Mist and Fog 21 -6.1 19 -7.2 92 92 SSE 9 15 30.13 1020 3 4 0.00 0.00
11:53 am 11:53 Cloudy with Mist and Fog 21 -6.1 19 -7.2 92 92 SSE 7 11 30.06 1018 2 3 0.00 0.00
12:11 pm 12:11 Cloudy with Mist and Fog 21 -6.1 19 -7.2 92 92 SE 6 9 30.10 1019 2 3 0.00 0.00
12:53 pm 12:53 Cloudy with Mist and Fog 21 -6.1 20 -6.7 96 96 SSE 5 7 30.04 1017 2 2 0.00 0.00
1:29 pm 13:29 Cloudy with Mist and Fog 22 -5.6 20 -6.7 92 92 SE 5 7 30.06 1018 2 3 0.00 0.00
1:37 pm 13:37 Cloudy with Light Snow 22 -5.6 20 -6.7 92 92 SE 5 7 30.06 1018 2 2 0.00 0.00
1:53 pm 13:53 Cloudy with Light Snow 22 -5.6 20 -6.7 92 92 SSE 3 6 30.01 1016 1 2 0.00 0.00
2:08 pm 14:08 Cloudy with Light Snow 23 -5 21 -6.1 92 92 S 5 7 30.05 1017 2 3 0.00 0.00
2:29 pm 14:29 Cloudy with Light Snow 23 -5 20 -6.7 88 88 S 7 11 30.05 1017 3 5 0.00 0.00
2:44 pm 14:44 Cloudy 25 -4 19 -7 80 80 SW 5 7 30.04 1017 7 11 0.00 0.00
2:51 pm 14:51 Cloudy 25 -4 19 -7 80 80 SSW 7 11 30.05 1018 7 11 0.00 0.00
2:53 pm 14:53 Cloudy 24 -4.4 20 -6.7 84 84 S 6 9 30.01 1016 8 13 0.00 0.00
3:53 pm 15:53 Cloudy 25 -3.9 21 -6.1 85 85 S 5 7 30.02 1017 10 16 0.00 0.00
4:53 pm 16:53 Cloudy 25 -3.9 20 -6.7 81 81 WSW 5 7 30.04 1017 10 16 0.00 0.00
5:53 pm 17:53 Cloudy 25 -3.9 20 -6.7 81 81 SW 5 7 30.05 1018 10 16 0.00 0.00
6:35 pm 18:35 Cloudy 24 -4.4 20 -6.7 84 84 SSW 7 11 30.11 1020 10 16 0.00 0.00
6:53 pm 18:53 Cloudy 24 -4.4 21 -6.1 88 88 S 3 6 30.06 1018 10 16 0.00 0.00
7:53 pm 19:53 Cloudy 24 -4.4 21 -6.1 88 88 S 6 9 30.07 1018 10 16 0.00 0.00
8:51 pm 20:51 Cloudy 23 -5 21 -6 93 93 S 7 11 30.13 1020 8 13 0.00 0.00
8:53 pm 20:53 Cloudy 23 -5 21 -6.1 92 92 S 7 11 30.09 1019 8 13 0.00 0.00
9:53 pm 21:53 Cloudy 23 -5 21 -6.1 92 92 SSW 10 17 30.10 1019 7 11 0.00 0.00
10:53 pm 22:53 Cloudy with Mist and Fog 23 -5 22 -5.6 96 96 S 8 13 30.11 1020 5 8 0.00 0.00
11:33 pm 23:33 Cloudy with Mist and Fog 23 -5 22 -5.6 96 96 SSW 6 9 30.16 1021 3 4 0.00 0.00
11:41 pm 23:41 Cloudy with Mist and Fog 24 -4.4 22 -5.6 91 91 S 6 9 30.15 1021 3 5 0.00 0.00
11:53 pm 23:53 Cloudy with Mist and Fog 24 -4.4 22 -5.6 91 91 SSW 8 13 30.11 1020 2 3 0.00 0.00

Powered by AerisWeather